Weather History for KTAZ - April, 2014

Change the Weather History Date:

Monday, April 28, 2014

  Actual Average (KSPI) Record (KSPI)
Temperature  
Mean Temperature 61 °F 58 °F  
Max Temperature 69 °F 69 °F 87 °F (1951)
Min Temperature 53 °F 47 °F 31 °F (1992)
Degree Days  
Heating Degree Days 4 8  
Month to date heating degree days 350  
Since 1 July heating degree days 5332  
Cooling Degree Days 0 1  
Month to date cooling degree days 17  
Year to date cooling degree days 19  
Growing Degree Days 11 (Base 50)    
Moisture  
Dew Point 57 °F    
Average Humidity 87    
Maximum Humidity 100    
Minimum Humidity 68    
Precipitation  
Precipitation 0.98 in 0.13 in 1.51 in (1956)
Month to date precipitation 3.25  
Year to date precipitation 9.51  
Snow  
Snow 0.00 in 0.00 in T in (2008)
Month to date snowfall 0.3  
Since 1 July snowfall 20.9  
Snow Depth -    
Sea Level Pressure  
Sea Level Pressure 29.51 in    
Wind  
Wind Speed 15 mph (SSE)    
Max Wind Speed 30 mph    
Max Gust Speed 47 mph    
Visibility 9 miles    
Events Rain , Thunderstorm    
T = Trace of Precipitation, MM = Missing Value Source: NWS Daily Summary

Daily Weather History Graph

Daily Weather History Graph

Search for Another Location

Airport or City:

Trip Planner

Search our weather history database for the weather conditions in past years. The results will help you decide how hot, cold, wet, or windy it might be!

Date:

Astronomy

Apr. 28, 2014 Rise Set
Actual Time 6:02 AM CDT 7:48 PM CDT
Civil Twilight 5:33 AM CDT 8:17 PM CDT
Nautical Twilight 4:58 AM CDT 8:52 PM CDT
Astronomical Twilight 4:21 AM CDT 9:29 PM CDT
Moon 5:39 AM CDT 7:26 PM CDT
Length of Visible Light 14h 43m
Length of Day
13h 46m
Waning Crescent, 0% of the Moon is Illuminated
Apr 28
Waning Crescent
Apr 29
New
May 6
First Quarter
May 14
Full
May 21
Last Quarter

Hourly Weather History & Observations

Time (CDT) Temp. Dew Point Humidity Pressure Visibility Wind Dir Wind Speed Gust Speed Precip Events Conditions
12:15 AM 62.6 °F 60.8 °F 94% 29.70 in 5.0 mi SSE 13.8 mph - 0.04 in Rain Rain
12:35 AM 62.6 °F 60.8 °F 94% 29.69 in 5.0 mi SSE 15.0 mph - 0.12 in Rain , Thunderstorm Thunderstorms and Rain
12:55 AM 62.6 °F 60.8 °F 94% 29.68 in 4.0 mi SSE 16.1 mph 20.7 mph 0.22 in Rain Rain
1:15 AM 62.6 °F 60.8 °F 94% 29.65 in 5.0 mi SSE 15.0 mph - 0.06 in Rain Rain
1:35 AM 60.8 °F 60.8 °F 100% 29.56 in 5.0 mi ESE 25.3 mph 31.1 mph 0.13 in Rain Light Rain
1:55 AM 60.8 °F 60.8 °F 100% 29.56 in 10.0 mi SE 23.0 mph 31.1 mph 0.13 in Thunderstorm Thunderstorm
2:15 AM 60.8 °F 60.8 °F 100% 29.56 in 10.0 mi SE 19.6 mph - 0.01 in   Mostly Cloudy
2:35 AM 60.8 °F 59.0 °F 94% 29.52 in 10.0 mi SE 21.9 mph 26.5 mph 0.01 in Rain , Thunderstorm Rain
2:55 AM 60.8 °F 59.0 °F 94% 29.52 in 10.0 mi SE 20.7 mph 27.6 mph 0.03 in Rain , Thunderstorm Rain
3:15 AM 60.8 °F 59.0 °F 94% 29.52 in 10.0 mi SE 17.3 mph 25.3 mph 0.02 in Rain , Thunderstorm Light Thunderstorms and Rain
3:35 AM 60.8 °F 59.0 °F 94% 29.51 in 10.0 mi ESE 17.3 mph 24.2 mph 0.04 in Rain , Thunderstorm Light Thunderstorms and Rain
3:55 AM 60.8 °F 57.2 °F 88% 29.55 in 10.0 mi SE 17.3 mph - 0.07 in Rain Light Rain
4:15 AM 60.8 °F 59.0 °F 94% 29.62 in 7.0 mi SW 18.4 mph 21.9 mph 0.03 in Rain Rain
4:35 AM 60.8 °F 59.0 °F 94% 29.62 in 5.0 mi SSW 8.1 mph 11.5 mph 0.12 in Rain Rain
4:55 AM 59.0 °F 59.0 °F 100% 29.61 in 10.0 mi SSW 5.8 mph - 0.13 in Rain Rain
5:15 AM 59.0 °F 59.0 °F 100% 29.62 in 7.0 mi SSW 6.9 mph - 0.03 in Rain Rain
5:35 AM 59.0 °F 59.0 °F 100% 29.60 in 10.0 mi ESE 6.9 mph - 0.06 in Rain Light Rain
5:55 AM 59.0 °F 59.0 °F 100% 29.55 in 10.0 mi East 12.7 mph - 0.08 in Rain Light Rain
6:15 AM 59.0 °F 59.0 °F 100% 29.52 in 10.0 mi ESE 15.0 mph 26.5 mph 0.01 in Rain Light Rain
6:35 AM 59.0 °F 57.2 °F 94% 29.47 in 10.0 mi ESE 27.6 mph 32.2 mph 0.01 in   Mostly Cloudy
6:55 AM 59.0 °F 57.2 °F 94% 29.47 in 10.0 mi ESE 21.9 mph 28.8 mph 0.01 in   Scattered Clouds
7:15 AM 59.0 °F 55.4 °F 88% 29.52 in 10.0 mi SE 12.7 mph 25.3 mph N/A   Scattered Clouds
7:35 AM 59.0 °F 55.4 °F 88% 29.51 in 10.0 mi SE 15.0 mph 19.6 mph N/A   Clear
7:55 AM 59.0 °F 57.2 °F 94% 29.50 in 10.0 mi SE 10.4 mph - N/A   Clear
8:15 AM 60.8 °F 57.2 °F 88% 29.50 in 10.0 mi SE 10.4 mph - N/A   Clear
8:35 AM 62.6 °F 57.2 °F 82% 29.50 in 10.0 mi SE 12.7 mph - N/A   Clear
8:55 AM 62.6 °F 57.2 °F 82% 29.50 in 10.0 mi SE 15.0 mph 20.7 mph N/A   Clear
9:15 AM 62.6 °F 59.0 °F 88% 29.50 in 10.0 mi SSE 13.8 mph 18.4 mph N/A   Clear
9:35 AM 64.4 °F 59.0 °F 83% 29.50 in 10.0 mi South 15.0 mph 20.7 mph N/A   Clear
9:55 AM 64.4 °F 57.2 °F 77% 29.50 in 10.0 mi SSE 17.3 mph 23.0 mph N/A   Clear
10:15 AM 64.4 °F 57.2 °F 77% 29.50 in 10.0 mi SSE 13.8 mph - N/A   Clear
10:35 AM 64.4 °F 57.2 °F 77% 29.51 in 10.0 mi SSE 18.4 mph 25.3 mph N/A   Clear
10:55 AM 68.0 °F 59.0 °F 73% 29.51 in 10.0 mi SSE 20.7 mph 26.5 mph N/A   Clear
11:15 AM 68.0 °F 59.0 °F 73% 29.50 in 10.0 mi South 15.0 mph 31.1 mph N/A   Clear
11:35 AM 68.0 °F 59.0 °F 73% 29.49 in 10.0 mi South 24.2 mph 34.5 mph N/A   Clear
12:15 PM 69.8 °F 60.8 °F 73% 29.50 in 10.0 mi South 26.5 mph 34.5 mph N/A   Mostly Cloudy
12:35 PM 69.8 °F 59.0 °F 68% 29.49 in 10.0 mi South 20.7 mph 36.8 mph N/A   Overcast
12:55 PM 69.8 °F 60.8 °F 73% 29.48 in 10.0 mi South 26.5 mph 36.8 mph N/A   Overcast
1:15 PM 69.8 °F 60.8 °F 73% 29.49 in 10.0 mi South 27.6 mph 35.7 mph N/A   Overcast
1:35 PM 68.0 °F 60.8 °F 78% 29.49 in 10.0 mi South 26.5 mph 33.4 mph N/A   Overcast
1:55 PM 69.8 °F 60.8 °F 73% 29.48 in 10.0 mi South 29.9 mph 40.3 mph N/A   Mostly Cloudy
2:15 PM 69.8 °F 60.8 °F 73% 29.47 in 10.0 mi SSE 23.0 mph 38.0 mph N/A   Scattered Clouds
2:35 PM 69.8 °F 60.8 °F 73% 29.45 in 10.0 mi SSE 24.2 mph 34.5 mph N/A   Scattered Clouds
2:55 PM 69.8 °F 60.8 °F 73% 29.44 in 10.0 mi SSE 23.0 mph 35.7 mph N/A   Mostly Cloudy
3:15 PM 69.8 °F 60.8 °F 73% 29.42 in 10.0 mi SSE 23.0 mph 33.4 mph N/A Thunderstorm Scattered Clouds
3:35 PM 69.8 °F 60.8 °F 73% 29.41 in 10.0 mi South 25.3 mph 33.4 mph N/A   Scattered Clouds
4:15 PM 69.8 °F 60.8 °F 73% 29.40 in 10.0 mi SSE 21.9 mph 34.5 mph N/A   Clear
4:35 PM 69.8 °F 60.8 °F 73% 29.41 in 10.0 mi SSE 19.6 mph 29.9 mph N/A   Scattered Clouds
4:55 PM 68.0 °F 59.0 °F 73% 29.41 in 10.0 mi SSE 17.3 mph 29.9 mph N/A Thunderstorm Mostly Cloudy
5:15 PM 68.0 °F 59.0 °F 73% 29.41 in 10.0 mi SSE 13.8 mph 24.2 mph N/A Thunderstorm Scattered Clouds
5:35 PM 53.6 °F 44.6 °F 72% 29.42 in 2.0 mi SSW 15.0 mph 47.2 mph 0.27 in Rain , Thunderstorm Light Thunderstorms and Rain
5:55 PM 53.6 °F 50.0 °F 88% 29.42 in 10.0 mi East 10.4 mph - 0.29 in Rain , Thunderstorm Light Thunderstorms and Rain
6:15 PM 55.4 °F 51.8 °F 88% 29.43 in 10.0 mi South 5.8 mph - 0.01 in Rain , Thunderstorm Light Thunderstorms and Rain
6:35 PM 53.6 °F 51.8 °F 94% 29.45 in 10.0 mi WNW 8.1 mph - 0.01 in Rain , Thunderstorm Thunderstorms and Rain
6:55 PM 55.4 °F 51.8 °F 88% 29.45 in 10.0 mi WNW 6.9 mph - 0.02 in   Light Drizzle
7:15 PM 55.4 °F 51.8 °F 88% 29.45 in 10.0 mi Calm Calm - N/A Thunderstorm Unknown
7:35 PM 55.4 °F 53.6 °F 94% 29.48 in 10.0 mi Calm Calm - N/A Thunderstorm Thunderstorm
7:55 PM 55.4 °F 53.6 °F 94% 29.49 in 10.0 mi East 6.9 mph - N/A   Scattered Clouds
8:15 PM 55.4 °F 53.6 °F 94% 29.50 in 10.0 mi Calm Calm - N/A   Scattered Clouds
8:35 PM 55.4 °F 53.6 °F 94% 29.52 in 10.0 mi Calm Calm - N/A Thunderstorm Scattered Clouds
8:55 PM 55.4 °F 53.6 °F 94% 29.53 in 10.0 mi Calm Calm - N/A   Scattered Clouds
9:15 PM 55.4 °F 53.6 °F 94% 29.55 in 10.0 mi Calm Calm - N/A   Scattered Clouds
9:35 PM 55.4 °F 53.6 °F 94% 29.54 in 10.0 mi Calm Calm - N/A   Scattered Clouds
9:55 PM 55.4 °F 53.6 °F 94% 29.54 in 10.0 mi Calm Calm - N/A   Scattered Clouds
10:15 PM 55.4 °F 53.6 °F 94% 29.55 in 10.0 mi SSE 3.5 mph - N/A   Mostly Cloudy
10:35 PM 55.4 °F 53.6 °F 94% 29.54 in 10.0 mi Calm Calm - N/A   Mostly Cloudy
10:55 PM 55.4 °F 53.6 °F 94% 29.52 in 10.0 mi East 5.8 mph - N/A   Overcast
11:15 PM 55.4 °F 53.6 °F 94% 29.52 in 10.0 mi ESE 4.6 mph - N/A   Mostly Cloudy
11:35 PM 55.4 °F 53.6 °F 94% 29.52 in 10.0 mi SE 5.8 mph - N/A   Overcast
11:55 PM 55.4 °F 53.6 °F 94% 29.52 in 10.0 mi SE 4.6 mph - N/A   Overcast